Location: Praha
(50.0830°N, 14.4670°E)
Time: 04:16:51
(UTC+02:00)

ISS - Pass Details

Date: 20 May 2021
Orbit: 417 x 422 km, 51.6° (Epoch: 13 June)

Event Time Altitude Azimuth Distance (km) Brightness Sun altitude
Rises 22:55:06 0° 274° (W) 2,365 0.6 -14.6°
Reaches altitude 10° 22:57:13 10° 277° (W) 1,502 -0.4 -14.8°
Maximum altitude 23:00:34 64° 1° (N) 469 -3.3 -15.0°
Drops below altitude 10° 23:03:56 10° 83° (E) 1,505 -1.2 -15.3°
Enters shadow 23:04:12 - 84° (E) 1,612 -1.0 -15.3°
